Flag for Germany Weather past 2 weeks in Dillenburg, Hesse, Germany

Now
40 °F

Overcast.


Feels Like: 40 °F
Forecast: 46 / 49 °F
Wind: 1 mph from Southwest

Location: Giessen

Current Time: Mar 28, 2015 at 5:33:42 AM

Latest Report: Mar 28, 2015 at 4:00 AM


Visibility: 14 mi

Pressure: 30.23 "Hg

Humidity: 80%

Dew point: 35 °F

Location of DillenburgLocation

Historic Weather in Dillenburg — Graph

°F

Dillenburg temperature yesterday

Maximum temperature yesterday: 47 °F (at 4:00 PM)
Minimum temperature yesterday: 39 °F (at 5:00 AM)
Average temperature yesterday: 43 °F

Past Weeks' High & Low Weather Summary

 TemperatureHumidityPressure
High63 °F (Mar 18, 3:00 PM)100% (Mar 20, 7:00 AM)30.35 "Hg (Mar 20, 7:00 AM)
Low26 °F (Mar 23, 6:00 AM)35% (Mar 20, 5:00 PM)29.59 "Hg (Mar 25, 4:00 PM)
Average42 °F80%30.12 "Hg
* Reported Mar 13 4:00 AM — Mar 28 4:00 AM, Dillenburg, Weather by CustomWeather, © 2015

Note: Actual official high and low records may vary slightly from our data, if they occured in-between our weather recording intervals... More about our weather records

Advertising

Dillenburg weather history for previous 24 hours

 ConditionsComfort  
Time TempWeatherWind HumidityBarometerVisibility
4:00 AM
Sat, Mar 28
40 °FOvercast.1 mph80%30.23 "Hg14 mi
3:00 AM40 °FOvercast.2 mph80%30.24 "Hg14 mi
2:00 AM40 °FOvercast.2 mph84%30.25 "Hg14 mi
1:00 AM40 °FOvercast.2 mph81%30.24 "Hg16 mi
12:00 AM40 °FOvercast.2 mph78%30.24 "Hg16 mi
11:00 PM
Fri, Mar 27
41 °FOvercast.2 mph72%30.22 "Hg22 mi
10:00 PM42 °FOvercast.2 mph72%30.21 "Hg22 mi
9:00 PM44 °FOvercast.3 mph69%30.20 "Hg22 mi
8:00 PM45 °FOvercast.5 mph67%30.18 "Hg19 mi
7:00 PM46 °FOvercast.6 mph63%30.15 "Hg19 mi
6:00 PM46 °FOvercast.6 mph64%30.13 "Hg19 mi
5:00 PM47 °FOvercast.9 mph62%30.11 "Hg17 mi
4:00 PM47 °FOvercast.6 mph67%30.09 "Hg19 mi
3:00 PM46 °FOvercast.8 mph69%30.08 "Hg19 mi
2:00 PM46 °FOvercast.8 mph73%30.07 "Hg17 mi
1:00 PM46 °FOvercast.10 mph68%30.05 "Hg17 mi
12:00 PM44 °FOvercast.10 mph78%30.04 "Hg9 mi
11:00 AM44 °FOvercast.9 mph82%30.02 "Hg7 mi
10:00 AM41 °FLow clouds.8 mph90%30.02 "Hg6 mi
9:00 AM41 °FLight rain. Low clouds.7 mph87%29.99 "Hg6 mi
8:00 AM41 °FOvercast.8 mph89%29.96 "Hg7 mi
7:00 AM41 °FLight rain. Low clouds.7 mph93%29.94 "Hg5 mi
6:00 AM40 °FFog.7 mph96%29.91 "Hg4 mi
5:00 AM39 °FPassing clouds.5 mph97%29.89 "Hg4 mi
Weather by CustomWeather, © 2015

See weather overviewHow to use our weather pages